College Park, MD

8:26 PM EDT on May 26, 2017 (GMT -0400)
College Park

Weather History for KCGS - January, 2014

Change the Weather History Date:

Monday, January 27, 2014

  Actual Average Record
Temperature  
Mean Temperature 36 °F -  
Max Temperature 51 °F 43 °F 75 °F (1950)
Min Temperature 22 °F 25 °F 4 °F (1987)
Degree Days  
Heating Degree Days 29    
Moisture  
Dew Point 16 °F    
Average Humidity 49    
Maximum Humidity 84    
Minimum Humidity 29    
Precipitation  
Precipitation 0.00 in - - ()
Sea Level Pressure  
Sea Level Pressure 29.85 in    
Wind  
Wind Speed 6 mph (WNW)    
Max Wind Speed 20 mph    
Max Gust Speed 30 mph    
Visibility 10 miles    
Events      
Averages and records for this station are not official NWS values.
T = Trace of Precipitation, MM = Missing Value Source: NWS Daily Summary

Daily Weather History Graph

Daily Weather History Graph

Search for Another Location

Airport or City:

Trip Planner

Search our weather history database for the weather conditions in past years. The results will help you decide how hot, cold, wet, or windy it might be!

Date:

Astronomy

Jan. 27, 2014 Rise Set
Actual Time 7:18 AM EST 5:23 PM EST
Civil Twilight 6:49 AM EST 5:51 PM EST
Nautical Twilight 6:17 AM EST 6:23 PM EST
Astronomical Twilight 5:46 AM EST 6:55 PM EST
Moon 3:56 AM EST 2:07 PM EST
Length of Visible Light 11h 01m
Length of Day
10h 04m
Waning Crescent, 15% of the Moon is Illuminated
Jan 27
Waning Crescent
Jan 30
New
Feb 6
First Quarter
Feb 14
Full
Feb 22
Last Quarter

Hourly Weather History & Observations

Time (EST) Temp. Windchill Dew Point Humidity Pressure Visibility Wind Dir Wind Speed Gust Speed Precip Events Conditions
12:10 AM 22.1 °F - 14.9 °F 74% 29.72 in 10.0 mi Calm Calm - N/A   Clear
12:30 AM 22.3 °F - 17.8 °F 83% 29.72 in 10.0 mi Calm Calm - N/A   Clear
12:50 AM 23.2 °F - 19.0 °F 84% 29.71 in 10.0 mi Calm Calm - N/A   Clear
1:10 AM 23.9 °F - 19.2 °F 82% 29.71 in 10.0 mi Calm Calm - N/A   Clear
1:30 AM 24.4 °F - 19.2 °F 81% 29.71 in 10.0 mi Calm Calm - N/A   Clear
1:50 AM 24.8 °F - 19.8 °F 81% 29.69 in 10.0 mi Calm Calm - N/A   Clear
2:10 AM 25.7 °F - 19.9 °F 79% 29.70 in 10.0 mi Calm Calm - N/A   Clear
2:30 AM 26.1 °F - 20.3 °F 79% 29.70 in 10.0 mi Calm Calm - N/A   Clear
2:50 AM 26.1 °F - 21.2 °F 82% 29.69 in 10.0 mi Calm Calm - N/A   Clear
3:10 AM 27.5 °F - 21.9 °F 80% 29.69 in 10.0 mi Calm Calm - N/A   Clear
3:30 AM 31.1 °F - 23.9 °F 75% 29.69 in 10.0 mi Calm Calm - N/A   Clear
3:50 AM 38.5 °F 35.0 °F 23.7 °F 55% 29.68 in 10.0 mi South 4.6 mph - N/A   Clear
4:10 AM 39.7 °F - 23.9 °F 53% 29.67 in 10.0 mi Calm Calm - N/A   Clear
4:30 AM 40.5 °F 38.4 °F 24.8 °F 54% 29.66 in 10.0 mi South 3.5 mph - N/A   Clear
4:50 AM 41.2 °F 38.2 °F 25.2 °F 53% 29.66 in 10.0 mi SSW 4.6 mph - N/A   Clear
5:10 AM 41.9 °F 40.0 °F 25.3 °F 52% 29.66 in 10.0 mi South 3.5 mph - N/A   Clear
5:35 AM 42.3 °F 39.4 °F 25.7 °F 52% 29.66 in 10.0 mi South 4.6 mph - N/A   Clear
5:55 AM 42.3 °F 40.5 °F 26.1 °F 53% 29.66 in 10.0 mi SW 3.5 mph - N/A   Clear
6:15 AM 42.3 °F 39.4 °F 26.6 °F 54% 29.65 in 10.0 mi SSW 4.6 mph - N/A   Clear
6:30 AM 42.3 °F 38.6 °F 26.6 °F 54% 29.65 in 10.0 mi South 5.8 mph - N/A   Clear
6:55 AM 42.6 °F 39.9 °F 27.1 °F 54% 29.66 in 10.0 mi SSW 4.6 mph - N/A   Clear
7:15 AM 42.3 °F 39.4 °F 27.3 °F 56% 29.66 in 10.0 mi SSW 4.6 mph - N/A   Clear
7:35 AM 42.4 °F - 27.5 °F 56% 29.66 in 10.0 mi Calm Calm - N/A   Scattered Clouds
7:55 AM 42.4 °F 39.6 °F 27.9 °F 56% 29.67 in 10.0 mi South 4.6 mph - N/A   Scattered Clouds
8:15 AM 42.4 °F 40.7 °F 28.2 °F 57% 29.67 in 10.0 mi SSW 3.5 mph - N/A   Scattered Clouds
8:35 AM 42.8 °F 40.1 °F 28.4 °F 57% 29.68 in 10.0 mi SSW 4.6 mph - N/A   Clear
8:55 AM 43.3 °F 40.7 °F 28.4 °F 56% 29.68 in 10.0 mi SW 4.6 mph - N/A   Clear
9:15 AM 44.1 °F 40.8 °F 28.8 °F 55% 29.68 in 10.0 mi SW 5.8 mph - N/A   Clear
9:35 AM 46.0 °F 43.9 °F 29.1 °F 52% 29.69 in 10.0 mi SSW 4.6 mph - N/A   Clear
9:55 AM 47.7 °F - 29.3 °F 49% 29.70 in 10.0 mi SW 8.1 mph - N/A   Clear
10:15 AM 48.2 °F - 29.5 °F 48% 29.71 in 10.0 mi SW 3.5 mph - N/A   Clear
10:35 AM 49.5 °F - 29.8 °F 47% 29.71 in 10.0 mi WSW 6.9 mph - N/A   Clear
10:55 AM 50.7 °F - 30.0 °F 45% 29.71 in 10.0 mi WSW 5.8 mph - N/A   Clear
11:15 AM 49.6 °F - 29.3 °F 46% 29.75 in 10.0 mi WNW 15.0 mph 28.8 mph N/A   Scattered Clouds
11:35 AM 45.5 °F 38.1 °F 29.5 °F 54% 29.78 in 10.0 mi NW 18.4 mph 26.5 mph N/A   Scattered Clouds
11:55 AM 45.3 °F 38.7 °F 29.1 °F 53% 29.79 in 10.0 mi NW 15.0 mph 20.7 mph N/A   Clear
12:15 PM 44.4 °F 37.2 °F 27.5 °F 52% 29.79 in 10.0 mi WNW 16.1 mph 29.9 mph N/A   Clear
12:35 PM 43.3 °F 35.2 °F 25.3 °F 49% 29.81 in 10.0 mi NNW 18.4 mph 25.3 mph N/A   Clear
12:55 PM 43.5 °F 35.2 °F 23.2 °F 45% 29.81 in 10.0 mi NW 19.6 mph 26.5 mph N/A   Clear
1:15 PM 41.9 °F 35.0 °F 21.0 °F 43% 29.81 in 10.0 mi NNW 12.7 mph 21.9 mph N/A   Clear
1:35 PM 41.4 °F 33.3 °F 19.9 °F 42% 29.82 in 10.0 mi NNW 16.1 mph 25.3 mph N/A   Clear
1:55 PM 39.6 °F 32.1 °F 17.8 °F 41% 29.84 in 10.0 mi NW 12.7 mph 25.3 mph N/A   Clear
2:15 PM 39.2 °F 31.6 °F 16.0 °F 39% 29.85 in 10.0 mi NW 12.7 mph 25.3 mph N/A   Clear
2:35 PM 39.2 °F 32.0 °F 13.5 °F 35% 29.86 in 10.0 mi NW 11.5 mph 20.7 mph N/A   Clear
2:55 PM 38.1 °F 29.5 °F 8.4 °F 29% 29.87 in 10.0 mi NW 15.0 mph 24.2 mph N/A   Clear
3:15 PM 35.6 °F 27.5 °F 9.3 °F 34% 29.89 in 10.0 mi NNW 11.5 mph 27.6 mph N/A   Clear
3:35 PM 33.8 °F 23.9 °F 9.0 °F 36% 29.91 in 10.0 mi NW 15.0 mph 24.2 mph N/A   Clear
3:55 PM 32.2 °F 23.2 °F 9.3 °F 39% 29.92 in 10.0 mi NNW 11.5 mph 26.5 mph N/A   Mostly Cloudy
4:15 PM 32.0 °F 22.5 °F 6.8 °F 35% 29.94 in 10.0 mi NW 12.7 mph 21.9 mph N/A   Mostly Cloudy
4:35 PM 31.6 °F 24.4 °F 7.2 °F 36% 29.96 in 10.0 mi NNW 8.1 mph 19.6 mph N/A   Overcast
4:55 PM 30.9 °F 19.4 °F 5.9 °F 35% 29.97 in 10.0 mi NNW 17.3 mph 24.2 mph N/A   Overcast
5:15 PM 30.2 °F 20.8 °F 6.1 °F 36% 29.98 in 10.0 mi NNW 11.5 mph 18.4 mph N/A   Scattered Clouds
5:35 PM 30.0 °F 18.7 °F 4.8 °F 34% 29.99 in 10.0 mi NW 16.1 mph 21.9 mph N/A   Mostly Cloudy
5:55 PM 30.0 °F 19.5 °F 5.4 °F 35% 30.01 in 10.0 mi NNW 13.8 mph 23.0 mph N/A   Overcast
6:15 PM 29.7 °F 20.1 °F 5.0 °F 35% 30.02 in 10.0 mi North 11.5 mph - N/A   Overcast
6:35 PM 29.3 °F 20.8 °F 4.8 °F 35% 30.03 in 10.0 mi North 9.2 mph 17.3 mph N/A   Overcast
6:55 PM 28.9 °F 18.2 °F 3.9 °F 35% 30.04 in 10.0 mi NNW 13.8 mph 19.6 mph N/A   Scattered Clouds
7:15 PM 28.8 °F 20.2 °F 3.4 °F 34% 30.05 in 10.0 mi NNW 9.2 mph 17.3 mph N/A   Scattered Clouds
7:35 PM 28.4 °F 18.5 °F 3.0 °F 34% 30.07 in 10.0 mi NW 11.5 mph 24.2 mph N/A   Scattered Clouds
7:55 PM 28.0 °F 19.3 °F 2.1 °F 33% 30.07 in 10.0 mi NNW 9.2 mph 18.4 mph N/A   Clear
8:15 PM 27.9 °F 17.3 °F 1.9 °F 33% 30.08 in 10.0 mi NNW 12.7 mph 19.6 mph N/A   Clear
8:30 PM 27.3 °F 15.6 °F 1.9 °F 34% 30.09 in 10.0 mi NNW 15.0 mph 24.2 mph N/A   Clear
8:55 PM 27.0 °F 17.3 °F 2.1 °F 34% 30.10 in 10.0 mi NW 10.4 mph 19.6 mph N/A   Clear
9:15 PM 26.4 °F 15.5 °F 2.8 °F 36% 30.12 in 10.0 mi NW 12.7 mph 17.3 mph N/A   Clear
9:30 PM 26.1 °F 15.0 °F 2.5 °F 36% 30.13 in 10.0 mi NW 12.7 mph 18.4 mph N/A   Clear
9:55 PM 25.7 °F 15.7 °F 1.9 °F 36% 30.15 in 10.0 mi NNW 10.4 mph 18.4 mph N/A   Clear
10:15 PM 24.8 °F 13.4 °F 0.5 °F 35% 30.15 in 10.0 mi NNW 12.7 mph 20.7 mph N/A   Clear
10:35 PM 24.4 °F 12.4 °F 0.5 °F 36% 30.16 in 10.0 mi NNW 13.8 mph 20.7 mph N/A   Clear
10:50 PM 23.9 °F 12.9 °F 0.1 °F 36% 30.17 in 10.0 mi NW 11.5 mph 21.9 mph N/A   Clear
11:15 PM 23.5 °F 11.8 °F -0.8 °F 35% 30.19 in 10.0 mi NW 12.7 mph 21.9 mph N/A   Clear
11:35 PM 23.0 °F 13.1 °F -0.9 °F 35% 30.20 in 10.0 mi NNW 9.2 mph 16.1 mph N/A   Clear
11:55 PM 22.6 °F 10.1 °F -0.8 °F 36% 30.20 in 10.0 mi WNW 13.8 mph 19.6 mph N/A   Clear